Time,TemperatureF,DewpointF,PressureIn,WindDirection,WindDirectionDegrees,WindSpeedMPH,WindSpeedGustMPH,Humidity,HourlyPrecipIn,Conditions,Clouds,dailyrainin,SoftwareType,DateUTC
2013-06-24 00:12:00,74.0,69.0,-100.00,North,10,0.0,0.0,86,-99.99,,,-99.99,,2013-06-24 05:12:00,
2013-06-24 00:22:00,74.0,69.0,-100.00,North,10,0.0,0.0,86,-99.99,,,-99.99,,2013-06-24 05:22:00,
2013-06-24 00:46:00,75.0,68.0,-100.00,NNE,30,0.0,0.0,81,-99.99,,,-99.99,,2013-06-24 05:46:00,
2013-06-24 01:14:00,75.0,69.0,-100.00,NNE,25,0.0,0.0,81,-99.99,,,-99.99,,2013-06-24 06:14:00,
2013-06-24 01:47:00,74.0,70.0,-100.00,NNE,20,0.0,0.0,86,-99.99,,,-99.99,,2013-06-24 06:47:00,
2013-06-24 01:57:00,74.0,70.0,-100.00,NNE,20,0.0,0.0,86,-99.99,,,-99.99,,2013-06-24 06:57:00,
2013-06-24 02:14:00,74.0,70.0,-100.00,SSE,160,0.0,0.0,87,-99.99,,,-99.99,,2013-06-24 07:14:00,
2013-06-24 02:29:00,74.0,70.0,-100.00,SSE,160,0.0,0.0,87,-99.99,,,-99.99,,2013-06-24 07:29:00,
2013-06-24 02:57:00,74.0,70.0,-100.00,SE,145,0.0,0.0,88,-99.99,,,-99.99,,2013-06-24 07:57:00,
2013-06-24 03:26:00,72.0,70.0,-100.00,SE,125,0.0,0.0,92,-99.99,,,-99.99,,2013-06-24 08:26:00,
2013-06-24 03:46:00,71.0,69.0,-100.00,ESE,110,0.0,0.0,93,-99.99,,,-99.99,,2013-06-24 08:46:00,
2013-06-24 03:55:00,71.0,69.0,-100.00,ESE,110,0.0,0.0,93,-99.99,,,-99.99,,2013-06-24 08:55:00,
2013-06-24 04:15:00,71.0,69.0,-100.00,SE,125,0.0,0.0,95,-99.99,,,-99.99,,2013-06-24 09:15:00,
2013-06-24 04:25:00,71.0,69.0,-100.00,SE,125,0.0,0.0,95,-99.99,,,-99.99,,2013-06-24 09:25:00,
2013-06-24 05:00:00,71.0,70.0,-100.00,SSE,155,0.0,0.0,94,-99.99,,,-99.99,,2013-06-24 10:00:00,
2013-06-24 05:24:00,72.0,69.0,-100.00,SE,145,0.0,0.0,90,-99.99,,,-99.99,,2013-06-24 10:24:00,
2013-06-24 05:37:00,71.0,69.0,-100.00,SSE,150,0.0,0.0,92,-99.99,,,-99.99,,2013-06-24 10:37:00,
2013-06-24 05:58:00,72.0,69.0,-100.00,North,5,0.0,0.0,91,-99.99,,,-99.99,,2013-06-24 10:58:00,
2013-06-24 06:14:00,72.0,70.0,-100.00,NNE,30,0.0,0.0,92,-99.99,,,-99.99,,2013-06-24 11:14:00,
2013-06-24 06:29:00,72.0,70.0,-100.00,NNE,30,0.0,0.0,92,-99.99,,,-99.99,,2013-06-24 11:29:00,
2013-06-24 07:16:00,74.0,69.0,-100.00,North,5,0.0,0.0,87,-99.99,,,-99.99,,2013-06-24 12:16:00,
2013-06-24 07:23:00,74.0,69.0,-100.00,North,5,0.0,0.0,87,-99.99,,,-99.99,,2013-06-24 12:23:00,
2013-06-24 07:55:00,75.0,71.0,-100.00,North,0,0.0,0.0,86,-99.99,,,-99.99,,2013-06-24 12:55:00,
2013-06-24 08:06:00,75.0,71.0,-100.00,North,0,0.0,0.0,86,-99.99,,,-99.99,,2013-06-24 13:06:00,
2013-06-24 08:24:00,76.0,71.0,-100.00,North,10,0.0,0.0,84,-99.99,,,-99.99,,2013-06-24 13:24:00,
2013-06-24 08:43:00,78.0,71.0,-100.00,North,10,0.0,0.0,81,-99.99,,,-99.99,,2013-06-24 13:43:00,
2013-06-24 08:57:00,78.0,71.0,-100.00,North,10,0.0,0.0,81,-99.99,,,-99.99,,2013-06-24 13:57:00,
2013-06-24 09:24:00,78.0,72.0,-100.00,NNE,20,0.0,0.0,80,-99.99,,,-99.99,,2013-06-24 14:24:00,
2013-06-24 09:45:00,81.0,72.0,-100.00,NNE,25,0.0,0.0,75,-99.99,,,-99.99,,2013-06-24 14:45:00,
2013-06-24 09:59:00,81.0,72.0,-100.00,NNE,25,0.0,0.0,75,-99.99,,,-99.99,,2013-06-24 14:59:00,
2013-06-24 10:27:00,82.0,73.0,-100.00,NNE,25,0.0,0.0,74,-99.99,,,-99.99,,2013-06-24 15:27:00,
2013-06-24 10:45:00,83.0,72.0,-100.00,NE,45,0.0,0.0,70,-99.99,,,-99.99,,2013-06-24 15:45:00,
2013-06-24 10:57:00,83.0,72.0,-100.00,NE,45,0.0,0.0,70,-99.99,,,-99.99,,2013-06-24 15:57:00,
2013-06-24 11:43:00,85.0,74.0,-100.00,NE,40,0.0,0.0,69,-99.99,,,-99.99,,2013-06-24 16:43:00,
2013-06-24 11:56:00,85.0,74.0,-100.00,NE,40,0.0,0.0,69,-99.99,,,-99.99,,2013-06-24 16:56:00,
2013-06-24 12:14:00,86.0,74.0,-100.00,NNE,25,0.0,0.0,69,-99.99,,,-99.99,,2013-06-24 17:14:00,
2013-06-24 12:24:00,86.0,74.0,-100.00,NNE,25,0.0,0.0,69,-99.99,,,-99.99,,2013-06-24 17:24:00,
2013-06-24 12:46:00,87.0,73.0,-100.00,NNE,30,0.0,0.0,65,-99.99,,,-99.99,,2013-06-24 17:46:00,
2013-06-24 12:57:00,87.0,73.0,-100.00,NNE,30,0.0,0.0,65,-99.99,,,-99.99,,2013-06-24 17:57:00,
2013-06-24 13:25:00,87.0,72.0,-100.00,NNE,30,0.0,0.0,61,-99.99,,,-99.99,,2013-06-24 18:25:00,
2013-06-24 13:46:00,88.0,71.0,-100.00,NNE,20,0.0,0.0,57,-99.99,,,-99.99,,2013-06-24 18:46:00,
2013-06-24 13:55:00,88.0,71.0,-100.00,NNE,20,0.0,0.0,57,-99.99,,,-99.99,,2013-06-24 18:55:00,
2013-06-24 14:25:00,89.0,73.0,-100.00,NNE,20,0.0,0.0,61,-99.99,,,-99.99,,2013-06-24 19:25:00,
2013-06-24 14:57:00,89.0,72.0,-100.00,NNE,25,0.0,0.0,57,-99.99,,,-99.99,,2013-06-24 19:57:00,
2013-06-24 15:12:00,90.0,74.0,-100.00,NNE,25,0.0,0.0,59,-99.99,,,-99.99,,2013-06-24 20:12:00,
2013-06-24 15:24:00,90.0,74.0,-100.00,NNE,25,0.0,0.0,59,-99.99,,,-99.99,,2013-06-24 20:24:00,
2013-06-24 15:45:00,90.0,71.0,-100.00,NE,35,0.0,0.0,53,-99.99,,,-99.99,,2013-06-24 20:45:00,
2013-06-24 15:56:00,90.0,71.0,-100.00,NE,35,0.0,0.0,53,-99.99,,,-99.99,,2013-06-24 20:56:00,
2013-06-24 16:25:00,90.0,72.0,-100.00,NE,40,0.0,0.0,56,-99.99,,,-99.99,,2013-06-24 21:25:00,
2013-06-24 16:55:00,91.0,71.0,-100.00,NNE,30,0.0,0.0,53,-99.99,,,-99.99,,2013-06-24 21:55:00,
2013-06-24 17:23:00,90.0,72.0,-100.00,NE,35,0.0,0.0,55,-99.99,,,-99.99,,2013-06-24 22:23:00,
2013-06-24 17:36:00,90.0,70.0,-100.00,NE,40,0.0,0.0,53,-99.99,,,-99.99,,2013-06-24 22:36:00,
2013-06-24 17:47:00,90.0,71.0,-100.00,NE,35,0.0,0.0,53,-99.99,,,-99.99,,2013-06-24 22:47:00,
2013-06-24 17:56:00,90.0,71.0,-100.00,NE,35,0.0,0.0,53,-99.99,,,-99.99,,2013-06-24 22:56:00,
2013-06-24 18:14:00,90.0,71.0,-100.00,NE,35,0.0,0.0,53,-99.99,,,-99.99,,2013-06-24 23:14:00,
2013-06-24 18:27:00,90.0,71.0,-100.00,NE,35,0.0,0.0,53,-99.99,,,-99.99,,2013-06-24 23:27:00,
2013-06-24 18:45:00,90.0,74.0,-100.00,SSE,150,0.0,0.0,59,-99.99,,,-99.99,,2013-06-24 23:45:00,
2013-06-24 18:56:00,90.0,74.0,-100.00,SSE,150,0.0,0.0,59,-99.99,,,-99.99,,2013-06-24 23:56:00,
2013-06-24 19:12:00,85.0,74.0,-100.00,SSE,160,0.0,0.0,70,-99.99,,,-99.99,,2013-06-25 00:12:00,
2013-06-24 19:24:00,85.0,74.0,-100.00,SSE,160,0.0,0.0,70,-99.99,,,-99.99,,2013-06-25 00:24:00,
2013-06-24 19:34:00,85.0,74.0,-100.00,SSE,160,0.0,0.0,70,-99.99,,,-99.99,,2013-06-25 00:34:00,
2013-06-24 19:56:00,83.0,74.0,-100.00,SSE,160,0.0,0.0,74,-99.99,,,-99.99,,2013-06-25 00:56:00,
2013-06-24 20:16:00,83.0,74.0,-100.00,SSE,165,0.0,0.0,75,-99.99,,,-99.99,,2013-06-25 01:16:00,
2013-06-24 20:24:00,83.0,74.0,-100.00,SSE,165,0.0,0.0,75,-99.99,,,-99.99,,2013-06-25 01:24:00,
2013-06-24 20:44:00,82.0,74.0,-100.00,SSE,155,0.0,0.0,77,-99.99,,,-99.99,,2013-06-25 01:44:00,
2013-06-24 20:57:00,82.0,74.0,-100.00,SSE,155,0.0,0.0,77,-99.99,,,-99.99,,2013-06-25 01:57:00,
2013-06-24 21:16:00,81.0,74.0,-100.00,SSE,160,0.0,0.0,78,-99.99,,,-99.99,,2013-06-25 02:16:00,
2013-06-24 21:25:00,81.0,74.0,-100.00,SSE,160,0.0,0.0,78,-99.99,,,-99.99,,2013-06-25 02:25:00,
2013-06-24 21:45:00,81.0,74.0,-100.00,North,0,0.0,0.0,80,-99.99,,,-99.99,,2013-06-25 02:45:00,
2013-06-24 21:57:00,81.0,74.0,-100.00,North,0,0.0,0.0,80,-99.99,,,-99.99,,2013-06-25 02:57:00,
2013-06-24 23:01:00,81.0,74.0,-100.00,North,0,0.0,0.0,80,-99.99,,,-99.99,,2013-06-25 04:01:00,
2013-06-24 23:11:00,81.0,74.0,-100.00,North,10,0.0,0.0,80,-99.99,,,-99.99,,2013-06-25 04:11:00,
2013-06-24 23:22:00,81.0,74.0,-100.00,North,10,0.0,0.0,80,-99.99,,,-99.99,,2013-06-25 04:22:00,
2013-06-24 23:43:00,79.0,74.0,-100.00,North,10,0.0,0.0,83,-99.99,,,-99.99,,2013-06-25 04:43:00,
2013-06-24 23:52:00,79.0,74.0,-100.00,North,10,0.0,0.0,83,-99.99,,,-99.99,,2013-06-25 04:52:00,